Location: Unspecified
(22.6800°N, 112.2000°E)
Time: 11:04:03
(UTC+08:00)

S-56A Canister/Altair - Pass Details

Date: 28 July 2021
Orbit: 632 x 2500 km, 38.9° (Epoch: 21 September)

Event Time Altitude Azimuth Distance (km) Brightness Sun altitude
Rises 00:22:02 0° 298° (WNW) 5,452 12.2 -48.1°
Reaches altitude 10° 00:26:18 10° 292° (WNW) 4,161 11.4 -48.2°
Enters shadow 00:29:10 19° 284° (WNW) 3,308 10.8 -48.2°
Maximum altitude 00:35:46 40° 227° (SW) 1,900 - -48.3°
Drops below altitude 10° 00:42:15 10° 160° (SSE) 2,839 - -48.3°
Sets 00:44:39 0° 152° (SSE) 3,587 - -48.2°
